SCP
0 0 0 0 0 0 0 0 0 0 0 0 0 0 0 0 0 0 0 0 0 0 0 0 0 0 0 0 0 0 -0 -0 -0 -0 -0 -0 -0 -0 -0 -0 -0 -0 -0 -0 -0 -0 -0 0 0
0 0 0 0 0 0 0 0 0 0 0 0 0 0 0 0 0 0 0 0 0 0 0 0 0 0 0 0 0 0 0 -0 -0 -0 -0 -0 -0 -0 -0 -0 -0 -0 -0 -0 -0 -0 -0 -0 -0
0 0 0 0 0 0 0 0 0 0 0 0 0 0 0 0 0 0 0 0 0 0 0 0 0 0 0 0 0 0 0 -0 -0 -0 -0 -0 -0 -0 -0 -0 -0 -0 -0 -0 -0 -0 -0 0 -0
0 0 0 0 0 0 0 0 0 0 0 0 0 0 0 0 0 0 0 0 0 0 0 0 0 0 0 0 0 0 0 -0 -0 -0 -0 -0 -0 -0 -0 -0 -0 -0 -0 -0 0 0 0 0 0
0 0 0 0 0 0 0 0 0 0 0 0 0 0 0 0 0 0 0 0 0 0 0 0 0 0 0 0 0 0 0 -0 -0 -0 -0 -0 -0 -0 -0 -0 -0 -0 0 0 0 0 0 0 -0
0 0 0 0 -0 -0 0 0 0 0 0 0 0 0 0 0 0 0 0 0 0 0 0 0 0 0 0 0 0 0 0 0 0 0 -0 0 -0 -0 -0 -0 -0 0 0 0 0 0 0 0 -0
0 0 0 0 0 0 0 0 0 0 0 0 0 0 0 0 0 0 0 0 0 0 0 0 0 0 0 0 0 0 0 0 0 0 0 0 0 0 0 0 0 0 0 0 0 0 -0 -0 -0
0 0 0 0 0 0 0 0 0 0 0 0 0 0 0 0 0 0 0 0 0 0 0 0 0 0 0 0 0 0 0 0 0 0 0 0 0 0 0 0 0 0 0 0 0 -0 -0 -0 -0
0 0 0 0 0 0 0 0 0 0 0 0 0 0 0 0 0 0 0 0 0 0 0 0 0 0 0 0 0 0 0 0 0 0 0 0 0 0 0 0 0 -0 0 0 -0 -0 -0 -0 -0
0 0 0 0 0 0 0 0 0 0 0 0 0 0 0 0 0 0 0 0 0 0 0 0 0 0 0 0 0 0 0 0 0 0 0 0 0 0 0 0 -0 -0 0 0 0 -0 -0 -0 0
0 0 0 0 0 0 0 0 0 0 0 0 0 0 0 0 0 0 0 0 0 0 0 0 0 0 0 0 0 0 0 0 0 0 0 0 0 0 0 0 0 0 0 0 0 0 0 0 0
0 0 0 0 0 0 0 0 0 0 0 0 0 0 0 0 0 0 0 0 0 0 0 0 0 0 0 0 0 0 0 0 0 0 0 0 0 0 0 0 0 0 0 0 0 0 0 0 0
0 0 0 0 0 0 0 0 0 0 0 0 0 0 0 0 0 0 0 0 0 0 0 0 0 0 0 0 0 0 0 0 0 0 0 0 0 0 0 0 0 0 0 0 0 0 0 0 0
0 0 0 0 0 0 0 0 0 0 0 0 0 0 0 0 0 0 0 0 0 0 0 0 0 0 0 0 0 0 0 0 0 0 0 0 0 0 0 0 0 0 0 0 0 0 0 0 0
0 0 0 0 0 0 0 0 0 0 0 0 0 0 0 0 0 0 0 0 0 0 0 0 0 0 0 0 0 0 0 0 0 0 0 0 0 0 0 0 0 0 0 0 0 0 0 0 0
0 0 0 0 0 0 0 0 0 0 0 0 0 0 0 0 0 0 0 0 0 0 0 0 0 0 0 0 0 0 0 0 0 0 0 0 0 0 0 0 0 0 0 0 0 0 0 0 0
0 0 0 0 0 0 0 0 0 0 0 0 0 0 0 0 0 -0 0 0 0 0 0 0 0 0 0 0 0 0 0 0 0 0 0 0 0 0 0 0 0 0 0 0 0 0 0 0 0
0 0 0 0 0 0 0 0 0 0 0 0 0 0 0 0 0 -0 -0 0 0 0 0 0 0 0 0 0 0 0 0 0 0 0 0 0 0 0 0 0 0 0 0 0 0 0 0 0 0
0 0 0 0 0 0 0 0 0 0 0 0 0 0 0 0 0 0 -0 -0 0 0 0 0 0 0 0 0 0 0 0 0 0 0 0 0 0 0 0 0 0 0 0 0 0 0 0 0 0
0 0 0 0 0 0 0 0 0 0 0 0 0 0 0 0 0 0 0 0 0 0 0 0 0 0 0 0 0 0 0 0 0 0 0 0 0 0 0 0 0 0 0 0 0 0 0 0 0
0 0 0 0 0 0 0 0 0 0 0 0 0 0 0 0 0 0 0 0 0 0 0 0 0 0 0 0 0 0 0 0 0 0 0 0 0 0 0 0 0 0 0 0 0 0 0 0 0
0 0 0 0 0 0 0 0 0 0 0 0 0 0 0 0 0 0 0 0 0 0 0 0 0 0 0 0 0 0 0 0 0 0 0 0 0 0 0 0 0 0 0 0 0 0 0 0 0
0 0 0 0 0 0 0 0 0 0 0 0 0 0 0 0 0 0 0 0 0 0 0 0 0 0 0 0 0 0 0 0 0 0 0 0 0 0 0 0 0 0 0 0 0 0 0 0 0
0 0 0 0 0 0 0 0 0 0 0 0 0 0 0 0 0 0 0 0 0 0 0 0 0 0 0 0 0 0 0 0 0 0 0 0 0 0 0 0 0 0 0 0 0 0 0 0 0
0 0 0 0 0 0 0 0 0 0 0 0 0 0 0 0 0 0 0 0 0 0 0 0 0 0 0 0 0 0 0 0 0 0 0 0 0 0 0 0 0 0 0 0 0 0 0 0 0
0 0 0 0 0 0 0 0 0 0 0 0 0 0 0 0 0 0 0 0 0 0 0 0 0 0 0 0 0 0 0 0 0 0 0 0 0 0 0 0 0 0 0 0 0 0 0 0 0
0 0 0 0 0 0 0 0 0 0 0 0 0 0 0 0 0 0 0 0 0 0 0 0 0 0 0 0 0 0 0 0 0 0 0 0 0 0 0 0 0 0 0 0 0 0 0 0 0
0 0 0 0 0 0 0 0 0 0 0 0 0 0 0 0 0 0 0 0 0 0 0 0 0 0 0 0 0 0 0 0 0 0 0 0 0 0 0 0 0 0 0 0 0 0 0 0 0
0 0 0 0 0 0 0 0 0 0 0 0 0 0 0 0 0 0 0 0 0 0 0 0 0 0 0 0 0 0 0 0 0 0 0 0 0 0 0 0 0 0 0 0 0 0 0 0 0
0 0 0 0 0 0 0 0 0 0 0 0 0 0 0 0 0 0 0 0 0 0 0 0 0 0 0 0 0 0 0 0 0 0 0 0 0 0 0 0 0 0 0 0 0 0 0 0 0
Wind_Speed_500mb
12 7 7 4 4 7 7 13 7 13 7 3 5 9 13 11 6 7 26 38 52 52 49 49 48 44 43 46 39 33 31 23 20 15 13 14 16 17 19 20 19 19 20 20 22 24 24 23 21
10 10 10 3 6 3 10 9 15 23 20 19 28 18 9 4 8 25 49 33 48 50 52 49 47 46 48 46 41 35 28 21 15 13 15 17 18 20 20 20 19 20 20 19 19 19 19 18 17
9 11 6 7 7 12 10 11 9 1 29 19 16 15 8 13 16 45 27 43 48 51 51 50 50 51 49 46 42 35 28 20 16 16 17 18 19 21 20 20 19 18 18 16 15 14 14 13 12
7 6 7 4 19 14 13 14 9 10 8 12 31 15 10 9 37 36 38 47 47 54 54 52 54 52 48 45 41 34 26 21 18 17 17 16 19 19 19 18 17 15 14 13 12 10 10 10 9
16 7 4 8 17 12 11 35 26 11 11 18 16 11 9 37 27 33 43 48 49 59 57 55 54 51 47 40 36 31 25 21 20 18 16 15 19 20 17 16 14 12 9 8 7 7 8 8 9
13 7 6 17 18 11 10 29 11 18 18 24 18 21 16 29 25 35 44 44 49 58 58 55 48 47 45 39 34 28 24 21 19 18 17 16 15 15 17 14 10 6 5 4 4 4 6 7 8
17 8 12 11 14 10 12 15 23 19 16 16 40 11 20 40 29 46 50 42 50 57 58 56 50 46 41 38 33 27 23 20 20 18 17 17 15 13 12 11 8 5 3 1 2 4 6 7 8
18 8 12 14 25 20 12 17 19 33 21 35 33 16 18 52 47 55 48 43 49 56 57 58 53 50 45 41 35 28 24 21 19 19 18 16 14 11 9 7 6 4 2 2 2 3 5 7 10
16 10 24 31 19 11 8 9 15 17 29 16 25 30 24 63 64 62 57 49 49 53 56 59 57 52 45 38 33 29 25 20 20 19 18 17 14 12 9 9 8 6 4 3 4 5 7 8 9
14 22 26 9 10 10 13 15 12 14 20 8 22 26 45 69 77 73 69 64 60 59 54 58 55 52 46 40 34 29 26 21 18 20 18 17 15 15 12 11 8 6 8 8 8 8 7 7 8
10 28 22 21 25 23 14 23 19 21 7 29 53 56 72 80 79 75 69 64 67 59 54 60 57 51 47 43 37 33 30 26 21 21 19 18 19 18 17 15 11 12 11 9 9 10 10 10 11
17 36 30 13 4 7 5 16 19 41 23 46 55 56 73 87 85 82 74 68 63 58 53 60 58 54 49 44 41 37 35 30 26 22 22 22 20 18 16 14 11 12 12 11 11 10 12 11 13
22 36 55 22 1 11 13 16 15 37 14 35 54 64 71 81 83 78 70 63 61 57 52 56 55 51 48 47 42 39 36 32 27 26 23 21 20 19 18 15 16 17 16 14 14 14 13 14 17
14 39 32 20 11 15 6 9 4 17 20 40 59 66 69 77 82 76 76 69 64 56 53 54 50 46 44 42 36 30 27 23 29 24 20 19 20 19 20 21 22 20 19 17 19 18 18 20 23
33 31 17 16 12 7 26 11 8 22 31 51 61 62 67 75 78 79 77 72 64 57 49 54 50 45 45 39 37 34 27 26 26 23 19 21 23 23 24 26 26 23 23 23 25 22 23 25 27
15 14 19 12 21 10 26 9 4 29 36 50 53 56 57 69 75 76 72 69 61 55 52 48 49 48 48 49 42 40 35 31 29 26 23 27 28 29 30 31 30 28 29 29 30 27 28 31 29
3 15 27 9 16 14 8 8 12 8 33 39 50 51 48 48 54 68 74 69 63 55 48 46 46 45 46 50 46 41 40 38 33 31 32 32 32 31 31 31 29 30 33 32 32 32 32 29 31
7 15 14 5 4 4 14 14 23 23 38 38 46 47 45 44 46 47 79 70 57 60 51 42 41 39 37 40 40 39 41 41 40 40 39 37 35 34 33 31 29 31 34 35 35 35 34 35 34
14 21 25 9 9 5 23 5 20 34 2 14 19 44 48 44 31 32 71 72 46 56 53 45 42 40 39 41 43 42 43 40 41 42 43 40 38 35 33 33 31 30 34 35 36 35 38 39 36
22 24 10 8 5 12 3 11 10 37 11 17 19 16 38 43 39 36 45 68 52 54 53 45 44 41 41 40 38 37 36 40 40 37 37 37 36 37 38 40 39 37 36 37 38 36 42 43 39
18 13 16 13 5 10 8 4 7 35 38 38 37 29 8 11 31 38 38 56 56 52 52 48 44 36 35 34 32 33 35 40 37 41 41 41 38 36 37 40 40 41 42 43 39 40 44 44 42
9 11 6 20 12 7 4 5 7 20 12 15 33 34 30 19 15 21 27 38 50 48 50 50 48 44 41 39 38 38 41 43 43 38 34 29 32 34 37 38 41 42 43 44 44 43 45 46 41
5 6 7 10 12 13 10 5 3 13 13 10 20 31 29 22 13 10 10 11 16 23 30 33 34 36 36 37 42 40 43 43 42 42 40 33 31 33 37 37 32 35 37 39 40 44 44 41 39
4 6 13 9 7 6 2 4 6 5 13 15 20 24 23 23 14 3 2 7 13 17 20 30 33 36 38 40 42 43 47 47 48 45 43 36 35 37 39 41 41 45 42 41 39 41 35 38 36
8 6 5 6 3 3 8 12 1 13 11 9 12 22 20 17 15 13 7 11 19 20 23 28 30 28 31 36 43 47 49 51 49 45 41 38 40 43 45 44 42 43 43 48 32 32 34 31 32
6 5 7 10 6 6 5 5 6 7 5 8 8 10 12 15 15 13 13 12 11 10 16 24 30 32 31 30 30 31 32 34 35 35 35 34 33 31 29 28 29 29 32 29 29 30 29 29 28
8 3 4 11 5 7 6 5 7 6 4 12 18 18 19 17 15 14 13 12 12 12 10 8 12 15 19 23 25 26 26 26 23 21 18 17 17 17 17 18 19 18 18 17 15 15 19 21 19
4 3 7 7 5 6 4 2 12 4 1 6 11 18 18 14 14 13 12 13 13 11 7 5 6 6 9 11 12 13 13 13 13 11 10 9 9 10 11 12 13 14 12 11 12 13 16 17 21
9 7 7 6 4 4 8 3 8 11 8 7 13 22 22 22 22 22 19 16 13 10 9 5 3 5 7 9 10 11 11 11 11 11 9 8 7 7 8 10 11 11 12 14 16 19 20 21 23
3 6 4 6 7 4 4 4 12 7 4 10 17 24 25 26 27 27 27 22 17 14 11 10 10 11 13 13 13 11 11 12 12 10 7 7 6 7 8 10 11 11 13 13 14 14 15 14 14
Wind_Direction_500mb
313 281 246 256 43 69 241 246 273 286 330 153 108 160 136 80 143 195 146 155 165 168 171 171 176 172 164 159 159 161 162 157 165 166 168 162 147 141 133 127 120 115 114 103 94 93 92 92 91
287 270 241 184 114 179 258 228 238 241 220 153 102 106 60 98 132 146 149 159 174 170 168 169 170 166 162 162 164 169 167 173 173 167 156 144 142 134 129 127 123 118 113 107 101 95 91 90 89
279 227 247 153 187 203 229 220 231 20 204 189 114 98 101 144 175 155 156 158 172 174 168 166 165 162 162 166 166 172 180 185 177 162 145 147 147 140 137 130 124 118 113 108 103 98 93 86 78
246 202 227 161 233 247 217 266 206 165 199 194 126 76 96 191 163 171 163 165 173 174 169 166 165 165 166 170 173 179 183 180 172 159 152 158 163 152 137 133 128 121 115 111 104 95 83 70 60
222 209 221 240 246 250 243 256 269 211 191 160 128 139 97 147 179 173 166 170 179 174 169 168 168 170 172 176 176 175 179 177 172 164 159 155 157 152 135 136 133 127 120 115 100 77 60 49 39
191 195 175 227 241 248 271 256 229 202 180 150 111 116 152 179 202 179 170 170 181 174 170 171 169 174 177 176 176 178 181 178 176 172 170 170 151 149 140 142 143 141 120 99 71 43 30 30 29
173 152 210 226 245 270 221 297 180 204 178 183 152 94 144 171 193 175 170 172 181 178 173 175 173 176 179 179 182 185 186 186 183 182 179 179 178 173 162 162 164 170 169 167 11 6 12 16 12
211 150 197 220 230 250 231 247 209 187 203 155 173 155 169 174 180 175 173 176 180 181 179 180 179 180 183 186 190 192 194 196 196 190 188 189 186 183 181 189 200 219 228 268 316 346 355 359 351
212 204 219 215 189 227 251 239 217 192 153 166 176 168 184 166 176 176 176 178 180 184 186 185 185 185 188 190 192 194 198 201 199 199 196 196 195 193 195 203 217 238 264 289 314 334 342 342 337
223 220 224 205 204 215 273 257 205 146 144 106 150 169 161 167 175 179 181 180 184 184 188 191 190 191 193 197 201 201 201 202 203 200 200 197 201 204 206 208 222 265 288 293 305 319 323 328 326
253 239 216 206 231 245 261 276 222 152 211 187 166 155 161 169 178 185 189 192 188 188 191 195 197 199 201 205 208 207 206 207 204 201 200 205 214 214 222 221 242 271 280 294 298 307 305 309 318
269 251 234 199 245 269 229 309 182 174 202 199 181 173 168 175 184 190 194 193 191 193 197 192 198 203 207 211 214 214 212 213 214 213 211 215 226 232 239 246 270 277 275 280 287 286 290 302 311
276 256 231 218 48 302 287 268 210 192 195 194 176 175 178 182 188 193 197 196 195 196 196 196 198 205 207 211 214 215 216 220 217 216 218 222 233 248 261 268 272 269 265 273 279 279 285 296 302
286 253 251 203 202 333 280 269 279 195 208 183 177 181 186 187 191 193 194 197 201 202 203 201 203 204 205 205 207 212 212 217 220 220 226 238 245 252 262 264 263 263 269 278 282 282 284 289 295
254 244 221 234 153 297 319 259 220 165 182 176 179 182 189 193 192 197 198 199 204 210 210 212 207 209 214 207 209 218 225 225 225 230 244 257 260 264 265 263 265 269 271 275 275 277 280 287 293
220 167 205 145 148 335 326 245 251 157 174 173 183 184 189 195 200 198 199 203 209 216 214 216 218 217 219 216 214 219 226 232 235 239 247 256 261 264 265 265 267 267 266 268 270 272 276 281 284
288 160 186 120 212 138 306 276 349 258 203 181 186 188 194 200 205 206 200 204 208 214 217 212 216 217 220 219 223 226 231 238 244 248 251 255 260 263 264 265 267 264 263 263 265 268 273 280 282
140 122 95 121 70 290 177 288 340 358 184 186 188 194 197 204 211 207 200 200 209 213 221 223 219 221 220 218 217 223 228 237 245 250 255 258 257 257 260 262 264 263 263 263 264 268 265 276 280
104 113 99 56 1 79 215 272 314 334 259 165 188 207 204 207 205 204 198 200 209 212 216 222 224 225 224 222 219 223 230 237 245 249 250 251 255 252 258 261 262 262 264 267 267 268 267 273 279
106 102 65 67 13 53 354 197 305 315 323 52 21 234 218 214 197 193 197 203 209 205 216 225 229 229 231 232 236 238 243 247 253 254 256 258 258 258 261 264 265 265 269 269 268 263 268 270 273
64 103 137 116 58 41 95 284 354 336 24 43 53 54 72 231 207 204 198 201 212 212 218 221 220 222 230 235 236 239 240 244 247 250 255 258 262 262 261 263 264 266 266 267 268 263 266 273 271
73 321 90 130 141 115 339 154 80 313 58 7 40 37 38 61 170 183 195 210 215 219 219 222 222 224 229 231 225 229 237 243 247 255 256 260 255 254 254 262 264 265 266 267 269 268 268 266 263
203 304 27 83 92 115 6 88 44 325 9 353 12 23 20 32 59 102 146 179 198 212 218 228 234 236 238 243 242 243 244 247 250 252 255 257 251 255 258 256 258 263 262 264 266 270 271 270 275
45 15 33 58 46 68 180 90 42 2 294 316 356 10 7 7 11 22 193 195 209 221 231 236 245 245 250 248 242 239 241 244 248 250 256 249 251 251 252 256 256 265 259 261 267 265 269 266 267
5 39 33 40 59 127 199 82 211 223 247 282 329 1 20 14 15 7 346 263 251 243 241 244 247 248 247 245 245 247 249 251 253 253 254 255 256 257 258 260 259 258 258 260 255 259 258 259 258
244 181 163 153 156 123 355 118 198 239 345 12 53 46 25 10 14 12 15 6 350 313 271 255 250 248 244 242 239 239 240 242 247 251 255 257 256 255 255 255 257 259 260 257 247 247 252 255 258
299 320 213 107 29 87 155 88 129 246 23 59 50 47 23 15 16 13 12 7 3 356 346 302 265 248 242 238 238 240 242 244 245 243 239 238 246 253 257 256 260 261 261 259 256 249 251 261 265
195 287 5 11 92 88 100 103 145 161 94 349 34 46 43 31 21 2 351 0 3 358 347 332 300 269 243 232 222 218 216 216 216 221 230 233 241 246 251 254 257 266 265 254 249 246 251 260 262
345 360 28 100 82 146 126 248 173 159 179 82 34 36 29 25 25 21 11 3 354 341 331 321 265 240 231 221 213 207 211 213 215 205 209 215 225 237 245 253 257 261 262 264 246 248 252 253 259
255 332 77 96 301 2 82 196 143 127 347 104 67 45 41 38 32 30 25 14 357 336 316 297 278 254 233 219 220 211 210 204 198 201 199 209 220 242 251 259 264 264 262 261 264 264 262 267 268
Wind_Speed_850mb
12 7 7 4 4 7 7 13 7 13 7 3 5 9 13 11 6 7 26 38 52 52 49 49 48 44 43 46 39 33 31 23 20 15 13 14 16 17 19 20 19 19 20 20 22 24 24 23 21
10 10 10 3 6 3 10 9 15 23 20 19 28 18 9 4 8 25 49 33 48 50 52 49 47 46 48 46 41 35 28 21 15 13 15 17 18 20 20 20 19 20 20 19 19 19 19 18 17
9 11 6 7 7 12 10 11 9 1 29 19 16 15 8 13 16 45 27 43 48 51 51 50 50 51 49 46 42 35 28 20 16 16 17 18 19 21 20 20 19 18 18 16 15 14 14 13 12
7 6 7 4 19 14 13 14 9 10 8 12 31 15 10 9 37 36 38 47 47 54 54 52 54 52 48 45 41 34 26 21 18 17 17 16 19 19 19 18 17 15 14 13 12 10 10 10 9
16 7 4 8 17 12 11 35 26 11 11 18 16 11 9 37 27 33 43 48 49 59 57 55 54 51 47 40 36 31 25 21 20 18 16 15 19 20 17 16 14 12 9 8 7 7 8 8 9
13 7 6 17 18 11 10 29 11 18 18 24 18 21 16 29 25 35 44 44 49 58 58 55 48 47 45 39 34 28 24 21 19 18 17 16 15 15 17 14 10 6 5 4 4 4 6 7 8
17 8 12 11 14 10 12 15 23 19 16 16 40 11 20 40 29 46 50 42 50 57 58 56 50 46 41 38 33 27 23 20 20 18 17 17 15 13 12 11 8 5 3 1 2 4 6 7 8
18 8 12 14 25 20 12 17 19 33 21 35 33 16 18 52 47 55 48 43 49 56 57 58 53 50 45 41 35 28 24 21 19 19 18 16 14 11 9 7 6 4 2 2 2 3 5 7 10
16 10 24 31 19 11 8 9 15 17 29 16 25 30 24 63 64 62 57 49 49 53 56 59 57 52 45 38 33 29 25 20 20 19 18 17 14 12 9 9 8 6 4 3 4 5 7 8 9
14 22 26 9 10 10 13 15 12 14 20 8 22 26 45 69 77 73 69 64 60 59 54 58 55 52 46 40 34 29 26 21 18 20 18 17 15 15 12 11 8 6 8 8 8 8 7 7 8
10 28 22 21 25 23 14 23 19 21 7 29 53 56 72 80 79 75 69 64 67 59 54 60 57 51 47 43 37 33 30 26 21 21 19 18 19 18 17 15 11 12 11 9 9 10 10 10 11
17 36 30 13 4 7 5 16 19 41 23 46 55 56 73 87 85 82 74 68 63 58 53 60 58 54 49 44 41 37 35 30 26 22 22 22 20 18 16 14 11 12 12 11 11 10 12 11 13
22 36 55 22 1 11 13 16 15 37 14 35 54 64 71 81 83 78 70 63 61 57 52 56 55 51 48 47 42 39 36 32 27 26 23 21 20 19 18 15 16 17 16 14 14 14 13 14 17
14 39 32 20 11 15 6 9 4 17 20 40 59 66 69 77 82 76 76 69 64 56 53 54 50 46 44 42 36 30 27 23 29 24 20 19 20 19 20 21 22 20 19 17 19 18 18 20 23
33 31 17 16 12 7 26 11 8 22 31 51 61 62 67 75 78 79 77 72 64 57 49 54 50 45 45 39 37 34 27 26 26 23 19 21 23 23 24 26 26 23 23 23 25 22 23 25 27
15 14 19 12 21 10 26 9 4 29 36 50 53 56 57 69 75 76 72 69 61 55 52 48 49 48 48 49 42 40 35 31 29 26 23 27 28 29 30 31 30 28 29 29 30 27 28 31 29
3 15 27 9 16 14 8 8 12 8 33 39 50 51 48 48 54 68 74 69 63 55 48 46 46 45 46 50 46 41 40 38 33 31 32 32 32 31 31 31 29 30 33 32 32 32 32 29 31
7 15 14 5 4 4 14 14 23 23 38 38 46 47 45 44 46 47 79 70 57 60 51 42 41 39 37 40 40 39 41 41 40 40 39 37 35 34 33 31 29 31 34 35 35 35 34 35 34
14 21 25 9 9 5 23 5 20 34 2 14 19 44 48 44 31 32 71 72 46 56 53 45 42 40 39 41 43 42 43 40 41 42 43 40 38 35 33 33 31 30 34 35 36 35 38 39 36
22 24 10 8 5 12 3 11 10 37 11 17 19 16 38 43 39 36 45 68 52 54 53 45 44 41 41 40 38 37 36 40 40 37 37 37 36 37 38 40 39 37 36 37 38 36 42 43 39
18 13 16 13 5 10 8 4 7 35 38 38 37 29 8 11 31 38 38 56 56 52 52 48 44 36 35 34 32 33 35 40 37 41 41 41 38 36 37 40 40 41 42 43 39 40 44 44 42
9 11 6 20 12 7 4 5 7 20 12 15 33 34 30 19 15 21 27 38 50 48 50 50 48 44 41 39 38 38 41 43 43 38 34 29 32 34 37 38 41 42 43 44 44 43 45 46 41
5 6 7 10 12 13 10 5 3 13 13 10 20 31 29 22 13 10 10 11 16 23 30 33 34 36 36 37 42 40 43 43 42 42 40 33 31 33 37 37 32 35 37 39 40 44 44 41 39
4 6 13 9 7 6 2 4 6 5 13 15 20 24 23 23 14 3 2 7 13 17 20 30 33 36 38 40 42 43 47 47 48 45 43 36 35 37 39 41 41 45 42 41 39 41 35 38 36
8 6 5 6 3 3 8 12 1 13 11 9 12 22 20 17 15 13 7 11 19 20 23 28 30 28 31 36 43 47 49 51 49 45 41 38 40 43 45 44 42 43 43 48 32 32 34 31 32
6 5 7 10 6 6 5 5 6 7 5 8 8 10 12 15 15 13 13 12 11 10 16 24 30 32 31 30 30 31 32 34 35 35 35 34 33 31 29 28 29 29 32 29 29 30 29 29 28
8 3 4 11 5 7 6 5 7 6 4 12 18 18 19 17 15 14 13 12 12 12 10 8 12 15 19 23 25 26 26 26 23 21 18 17 17 17 17 18 19 18 18 17 15 15 19 21 19
4 3 7 7 5 6 4 2 12 4 1 6 11 18 18 14 14 13 12 13 13 11 7 5 6 6 9 11 12 13 13 13 13 11 10 9 9 10 11 12 13 14 12 11 12 13 16 17 21
9 7 7 6 4 4 8 3 8 11 8 7 13 22 22 22 22 22 19 16 13 10 9 5 3 5 7 9 10 11 11 11 11 11 9 8 7 7 8 10 11 11 12 14 16 19 20 21 23
3 6 4 6 7 4 4 4 12 7 4 10 17 24 25 26 27 27 27 22 17 14 11 10 10 11 13 13 13 11 11 12 12 10 7 7 6 7 8 10 11 11 13 13 14 14 15 14 14
Wind_Direction_850mb
313 281 246 256 43 69 241 246 273 286 330 153 108 160 136 80 143 195 146 155 165 168 171 171 176 172 164 159 159 161 162 157 165 166 168 162 147 141 133 127 120 115 114 103 94 93 92 92 91
287 270 241 184 114 179 258 228 238 241 220 153 102 106 60 98 132 146 149 159 174 170 168 169 170 166 162 162 164 169 167 173 173 167 156 144 142 134 129 127 123 118 113 107 101 95 91 90 89
279 227 247 153 187 203 229 220 231 20 204 189 114 98 101 144 175 155 156 158 172 174 168 166 165 162 162 166 166 172 180 185 177 162 145 147 147 140 137 130 124 118 113 108 103 98 93 86 78
246 202 227 161 233 247 217 266 206 165 199 194 126 76 96 191 163 171 163 165 173 174 169 166 165 165 166 170 173 179 183 180 172 159 152 158 163 152 137 133 128 121 115 111 104 95 83 70 60
222 209 221 240 246 250 243 256 269 211 191 160 128 139 97 147 179 173 166 170 179 174 169 168 168 170 172 176 176 175 179 177 172 164 159 155 157 152 135 136 133 127 120 115 100 77 60 49 39
191 195 175 227 241 248 271 256 229 202 180 150 111 116 152 179 202 179 170 170 181 174 170 171 169 174 177 176 176 178 181 178 176 172 170 170 151 149 140 142 143 141 120 99 71 43 30 30 29
173 152 210 226 245 270 221 297 180 204 178 183 152 94 144 171 193 175 170 172 181 178 173 175 173 176 179 179 182 185 186 186 183 182 179 179 178 173 162 162 164 170 169 167 11 6 12 16 12
211 150 197 220 230 250 231 247 209 187 203 155 173 155 169 174 180 175 173 176 180 181 179 180 179 180 183 186 190 192 194 196 196 190 188 189 186 183 181 189 200 219 228 268 316 346 355 359 351
212 204 219 215 189 227 251 239 217 192 153 166 176 168 184 166 176 176 176 178 180 184 186 185 185 185 188 190 192 194 198 201 199 199 196 196 195 193 195 203 217 238 264 289 314 334 342 342 337
223 220 224 205 204 215 273 257 205 146 144 106 150 169 161 167 175 179 181 180 184 184 188 191 190 191 193 197 201 201 201 202 203 200 200 197 201 204 206 208 222 265 288 293 305 319 323 328 326
253 239 216 206 231 245 261 276 222 152 211 187 166 155 161 169 178 185 189 192 188 188 191 195 197 199 201 205 208 207 206 207 204 201 200 205 214 214 222 221 242 271 280 294 298 307 305 309 318
269 251 234 199 245 269 229 309 182 174 202 199 181 173 168 175 184 190 194 193 191 193 197 192 198 203 207 211 214 214 212 213 214 213 211 215 226 232 239 246 270 277 275 280 287 286 290 302 311
276 256 231 218 48 302 287 268 210 192 195 194 176 175 178 182 188 193 197 196 195 196 196 196 198 205 207 211 214 215 216 220 217 216 218 222 233 248 261 268 272 269 265 273 279 279 285 296 302
286 253 251 203 202 333 280 269 279 195 208 183 177 181 186 187 191 193 194 197 201 202 203 201 203 204 205 205 207 212 212 217 220 220 226 238 245 252 262 264 263 263 269 278 282 282 284 289 295
254 244 221 234 153 297 319 259 220 165 182 176 179 182 189 193 192 197 198 199 204 210 210 212 207 209 214 207 209 218 225 225 225 230 244 257 260 264 265 263 265 269 271 275 275 277 280 287 293
220 167 205 145 148 335 326 245 251 157 174 173 183 184 189 195 200 198 199 203 209 216 214 216 218 217 219 216 214 219 226 232 235 239 247 256 261 264 265 265 267 267 266 268 270 272 276 281 284
288 160 186 120 212 138 306 276 349 258 203 181 186 188 194 200 205 206 200 204 208 214 217 212 216 217 220 219 223 226 231 238 244 248 251 255 260 263 264 265 267 264 263 263 265 268 273 280 282
140 122 95 121 70 290 177 288 340 358 184 186 188 194 197 204 211 207 200 200 209 213 221 223 219 221 220 218 217 223 228 237 245 250 255 258 257 257 260 262 264 263 263 263 264 268 265 276 280
104 113 99 56 1 79 215 272 314 334 259 165 188 207 204 207 205 204 198 200 209 212 216 222 224 225 224 222 219 223 230 237 245 249 250 251 255 252 258 261 262 262 264 267 267 268 267 273 279
106 102 65 67 13 53 354 197 305 315 323 52 21 234 218 214 197 193 197 203 209 205 216 225 229 229 231 232 236 238 243 247 253 254 256 258 258 258 261 264 265 265 269 269 268 263 268 270 273
64 103 137 116 58 41 95 284 354 336 24 43 53 54 72 231 207 204 198 201 212 212 218 221 220 222 230 235 236 239 240 244 247 250 255 258 262 262 261 263 264 266 266 267 268 263 266 273 271
73 321 90 130 141 115 339 154 80 313 58 7 40 37 38 61 170 183 195 210 215 219 219 222 222 224 229 231 225 229 237 243 247 255 256 260 255 254 254 262 264 265 266 267 269 268 268 266 263
203 304 27 83 92 115 6 88 44 325 9 353 12 23 20 32 59 102 146 179 198 212 218 228 234 236 238 243 242 243 244 247 250 252 255 257 251 255 258 256 258 263 262 264 266 270 271 270 275
45 15 33 58 46 68 180 90 42 2 294 316 356 10 7 7 11 22 193 195 209 221 231 236 245 245 250 248 242 239 241 244 248 250 256 249 251 251 252 256 256 265 259 261 267 265 269 266 267
5 39 33 40 59 127 199 82 211 223 247 282 329 1 20 14 15 7 346 263 251 243 241 244 247 248 247 245 245 247 249 251 253 253 254 255 256 257 258 260 259 258 258 260 255 259 258 259 258
244 181 163 153 156 123 355 118 198 239 345 12 53 46 25 10 14 12 15 6 350 313 271 255 250 248 244 242 239 239 240 242 247 251 255 257 256 255 255 255 257 259 260 257 247 247 252 255 258
299 320 213 107 29 87 155 88 129 246 23 59 50 47 23 15 16 13 12 7 3 356 346 302 265 248 242 238 238 240 242 244 245 243 239 238 246 253 257 256 260 261 261 259 256 249 251 261 265
195 287 5 11 92 88 100 103 145 161 94 349 34 46 43 31 21 2 351 0 3 358 347 332 300 269 243 232 222 218 216 216 216 221 230 233 241 246 251 254 257 266 265 254 249 246 251 260 262
345 360 28 100 82 146 126 248 173 159 179 82 34 36 29 25 25 21 11 3 354 341 331 321 265 240 231 221 213 207 211 213 215 205 209 215 225 237 245 253 257 261 262 264 246 248 252 253 259
255 332 77 96 301 2 82 196 143 127 347 104 67 45 41 38 32 30 25 14 357 336 316 297 278 254 233 219 220 211 210 204 198 201 199 209 220 242 251 259 264 264 262 261 264 264 262 267 268